Flag for Germany Weather past 2 weeks in Norderstedt, Schleswig-Holstein, Germany

Now
41 °F

Sprinkles. Scattered clouds.


Feels Like: 34 °F
Forecast: 34 / 46 °F
Wind: 12 mph from Southwest

Location: Hamburg-Fuhlsbuettel

Current Time: Mar 4, 2015 at 5:04:30 PM

Latest Report: Mar 4, 2015 at 4:20 PM


Visibility: N/A

Pressure: 30.04 "Hg

Humidity: 87%

Dew point: 37 °F

Location of NorderstedtLocation

Historic Weather in Norderstedt — Graph

°F

Norderstedt temperature yesterday

Maximum temperature yesterday: 43 °F (at 11:50 AM)
Minimum temperature yesterday: 34 °F (at 12:20 AM)
Average temperature yesterday: 38 °F

Past Weeks' High & Low Weather Summary

 TemperatureHumidityPressure
High46 °F (Feb 25, 3:20 PM)100% (Feb 17, 8:50 PM)30.69 "Hg (Feb 17, 8:50 PM)
Low32 °F (Feb 18, 1:20 AM)57% (Feb 25, 3:20 PM)29.24 "Hg (Feb 21, 9:50 AM)
Average39 °F85%29.84 "Hg
* Reported Feb 17 3:20 PM — Mar 4 3:50 PM, Norderstedt, Weather by CustomWeather, © 2015

Note: Actual official high and low records may vary slightly from our data, if they occured in-between our weather recording intervals... More about our weather records

Advertising

Norderstedt weather history for previous 24 hours

 ConditionsComfort  
Time TempWeatherWind HumidityBarometerVisibility
3:50 PM
Wed, Mar 4
41 °FPartly sunny.15 mph87%30.04 "HgN/A
3:20 PM41 °FScattered clouds.8 mph87%30.04 "HgN/A
2:50 PM39 °FHail. Partly sunny.18 mph87%30.04 "HgN/A
2:20 PM41 °FSprinkles. Partly sunny.13 mph81%30.04 "HgN/A
1:50 PM41 °FScattered showers. Scattered clouds.15 mph87%30.04 "HgN/A
1:20 PM41 °FSprinkles. Broken clouds.12 mph87%30.04 "HgN/A
12:50 PM41 °FSprinkles. Partly sunny.12 mph81%30.04 "HgN/A
12:20 PM41 °FBroken clouds.14 mph81%30.04 "HgN/A
11:50 AM41 °FPartly sunny.14 mph81%30.04 "HgN/A
11:20 AM41 °FPartly sunny.14 mph81%30.04 "HgN/A
10:50 AM41 °FScattered clouds.16 mph81%30.01 "HgN/A
10:20 AM37 °FSprinkles. Partly sunny.13 mph93%30.04 "HgN/A
9:50 AM37 °FSprinkles. Partly sunny.14 mph87%30.01 "HgN/A
9:20 AM37 °FPartly sunny.15 mph87%30.01 "HgN/A
8:50 AM36 °FScattered clouds.13 mph93%30.01 "HgN/A
8:20 AM36 °FBroken clouds.12 mph87%30.01 "HgN/A
7:50 AM34 °FPartly sunny.10 mph93%29.98 "HgN/A
7:20 AM34 °FPartly sunny.9 mph93%29.98 "HgN/A
6:50 AM34 °FPassing clouds.12 mph93%29.98 "HgN/A
6:20 AM34 °FPassing clouds.12 mph93%29.98 "HgN/A
5:50 AM34 °FClear.10 mph93%29.98 "Hg10 mi
5:20 AM34 °FPassing clouds.7 mph93%29.98 "HgN/A
4:50 AM34 °FPassing clouds.8 mph93%29.95 "HgN/A
4:20 AM34 °FSnow flurries. Passing clouds.9 mph93%29.95 "HgN/A
3:50 AM34 °FSnow flurries. Partly cloudy.12 mph93%29.95 "HgN/A
3:20 AM36 °FSnow flurries. Passing clouds.10 mph87%29.95 "HgN/A
2:50 AM36 °FPassing clouds.8 mph87%29.92 "HgN/A
2:20 AM36 °FPassing clouds.8 mph87%29.92 "HgN/A
1:50 AM36 °FPassing clouds.9 mph93%29.92 "HgN/A
1:20 AM36 °FPassing clouds.9 mph93%29.92 "HgN/A
12:50 AM36 °FPassing clouds.9 mph93%29.92 "HgN/A
12:20 AM36 °FPassing clouds.10 mph87%29.92 "HgN/A
11:50 PM
Tue, Mar 3
36 °FPassing clouds.10 mph87%29.89 "HgN/A
11:20 PM36 °FPassing clouds.10 mph93%29.89 "HgN/A
10:50 PM36 °FPassing clouds.12 mph93%29.89 "HgN/A
10:20 PM37 °FPassing clouds.12 mph87%29.89 "HgN/A
9:50 PM37 °FPassing clouds.15 mph87%29.89 "HgN/A
9:20 PM37 °FPassing clouds.12 mph87%29.86 "HgN/A
8:50 PM37 °FPassing clouds.13 mph87%29.86 "HgN/A
8:20 PM37 °FPassing clouds.16 mph93%29.83 "HgN/A
7:50 PM37 °FPartly cloudy.13 mph93%29.83 "HgN/A
7:20 PM37 °FPassing clouds.12 mph93%29.83 "Hg6 mi
6:50 PM37 °FLight rain. Passing clouds.12 mph93%29.83 "Hg5 mi
6:20 PM37 °FRain. Passing clouds.16 mph93%29.83 "Hg5 mi
5:50 PM37 °FRain. Partly sunny.16 mph93%29.83 "Hg5 mi
5:20 PM36 °FLight rain. Partly sunny.3 mph100%29.83 "Hg4 mi
Weather by CustomWeather, © 2015

See weather overviewHow to use our weather pages